Regional Weather Roundup
Issued by NWS

Home | Current Version | Previous Version | Graphics & Text | Print | Product List | Glossary Off
Versions: 1 2 3 4 5 6 7 8 9 10 11 12 13 14 15 16 17 18 19 20 21 22 23 24 25 26 27 28 29 30 31 32 33 34 35 36 37 38 39 40 41 42 43 44 45 46 47 48 49 50

000
ASUS43 KLMK 241210
RWRKY
KENTUCKY REGIONAL WEATHER ROUNDUP
NATIONAL WEATHER SERVICE LOUISVILLE KY
700 AM EST TUE JAN 24 2017

NOTE "FAIR" INDICATES FEW OR NO CLOUDS BELOW 12,000 FEET
WITH NO SIGNIFICANT WEATHER AND/OR OBSTRUCTIONS TO VISIBILITY.

KYZ001>023-026-027-061>063-070>075-241300-
WESTERN AND SOUTH CENTRAL KENTUCKY

CITY           SKY/WX    TMP DP  RH WIND       PRES   REMARKS
PADUCAH        CLOUDY    41  33  73 CALM      29.91R
HENDERSON      CLOUDY    41  32  70 NW5       29.91R
OWENSBORO      CLOUDY    40  34  79 N6        29.91R
HOPKINSVILLE   CLOUDY    40  34  78 NW6       29.91R
BOWLING GREEN  CLOUDY    42  35  76 NW6       29.90R
GLASGOW        CLOUDY    39  35  85 NW6       29.90R WCI  35
$$

KYZ024-025-028>034-038-045-046-053-241300-
NORTH CENTRAL KENTUCKY

CITY           SKY/WX    TMP DP  RH WIND       PRES   REMARKS
LOUISVILLE/SDF CLOUDY    41  34  76 W6        29.86R
LOUISVILLE/LOU CLOUDY    41  35  79 W8        29.86S
FORT KNOX      CLOUDY    39  35  85 W7        29.85R WCI  34
$$

KYZ035>037-039>044-047>052-055>060-089>105-241300-
NORTHEAST KENTUCKY

CITY           SKY/WX    TMP DP  RH WIND       PRES   REMARKS
LEXINGTON      CLOUDY    40  37  89 W12       29.83R FOG     WCI  33
COVINGTON      CLOUDY    41  39  93 W12       29.80R
FRANKFORT      CLOUDY    40  37  89 W6        29.83R
$$

KYZ054-064>069-076>088-106>120-241300-
SOUTHEAST KENTUCKY

CITY           SKY/WX    TMP DP  RH WIND       PRES   REMARKS
JACKSON        LGT RAIN  40  39  97 W6        29.78R FOG
LONDON         CLOUDY    39  38  96 W8        29.83R FOG     WCI  33
SOMERSET       LGT RAIN  37  37 100 W10G17    29.87R WCI  30
MIDDLESBORO    CLOUDY    41  37  87 W5        29.82R
MONTICELLO     CLOUDY    39  38  96 W9        29.88R WCI  33
$$




USA.gov is the U.S. government's official web portal to all federal, state and local government web resources and services.